Location: Azul
(36.7830°S, 59.8500°W)
Time: 00:58:56
(UTC-03:00)

ISS - Pass Details

Date: 16 June 2019
Orbit: 407 x 418 km, 51.6° (Epoch: 27 June)

Event Time Altitude Azimuth Distance (km) Brightness Sun altitude
Exits shadow 06:20:56 13° 349° (N) 1,305 -1.2 -21.2°
Drops below altitude 10° 06:21:30 10° 357° (N) 1,465 -0.9 -21.1°
Sets 06:24:01 0° 16° (NNE) 2,337 0.4 -20.6°
